Volver al catálogo

OPS 0856 DEB

LostPO
NORAD 24312·DEBRIS·🇺🇸 United States

Lanzado Aug 19, 1966 desde Vandenberg Space Force Base

Loading…

Próximos Pases (próximas 24 horas)

TLE

ObsoletoSource: Space-Track

Época: Dec 2, 2012, 23:47 UTC

1 24312U 66077N   12337.99149101 +.00000003 +00000-0 +10000-3 0  9995
2 24312 089.7439 349.5203 0858811 027.1749 270.4482 08.64449957552882

Sigue OPS 0856 DEB en tiempo real con AllMySat

Download on the App Store